Regional Weather Roundup
Issued by NWS

Home | Current Version | Previous Version | Graphics & Text | Print | Product List | Glossary On
Versions: 1 2 3 4 5 6 7 8 9 10 11 12 13 14 15 16 17 18 19 20 21 22 23 24 25 26 27 28 29 30 31 32 33 34 35 36 37 38 39 40 41 42 43 44 45 46 47 48 49 50
000
ASUS44 KMEG 272310
RWRTN
TENNESSEE HOURLY STATE WEATHER ROUNDUP
NATIONAL WEATHER SERVICE MEMPHIS TN
600 PM CDT THU JUL 27 2017

TNZ002-004-019-021-049-052-054-088>092-280000-
WEST TENNESSEE

CITY           SKY/WX    TMP DP  RH WIND       PRES   REMARKS
MEMPHIS INTL   CLOUDY    88  78  72 NW6       29.91F HX 101
NWS MEMPHIS      N/A     82 N/A N/A MISG        N/A
JACKSON        CLOUDY    82  74  76 CALM      29.91F
COVINGTON      SUNNY     77  75  94 SE3       29.90F
UNION CITY     SUNNY     84  77  79 W6        29.89S HX  94
BOLIVAR        PTSUNNY   84  75  74 W8        29.94R HX  92
PARIS          MOSUNNY   81  73  78 SW6       29.89F
HUNTINGDON     SUNNY     79  75  89 SW6       29.90F
LEXINGTON      MOSUNNY   86  77  74 CALM      29.91S HX  97
SAVANNAH       SUNNY     90  75  62 SW8       29.89F HX 100
$$

TNZ008-025-027-028-033-062-065-066-280000-
NORTH MIDDLE TENNESSEE

CITY           SKY/WX    TMP DP  RH WIND       PRES   REMARKS
NASHVILLE      CLOUDY    88  71  57 SW8       29.91S HX  94
PORTLAND       SUNNY     84  75  74 CALM      29.91S HX  92
CLARKSVILLE    CLOUDY    82  71  69 N9        29.91R
SMYRNA         CLOUDY    89  72  56 W9        29.91S HX  96
COOKEVILLE     SUNNY     86  72  62 CALM      29.93S HX  92
GALLATIN       MOSUNNY   88  73  62 CALM      29.92S HX  96
CROSSVILLE     CLOUDY    83  69  62 W7        30.00R
$$

TNZ061-075-076-078-094-096-097-280000-
SOUTH MIDDLE TENNESSEE

CITY           SKY/WX    TMP DP  RH WIND       PRES   REMARKS
FAYETTEVILLE   SUNNY     88  73  62 SW5       29.94S HX  96
TULLAHOMA        N/A     84  72  65 SW6       29.96S
WINCHESTER     SUNNY     88  72  58 CALM      29.95S HX  94
MCMINNVILLE    SUNNY     88  75  66 S3        29.94F HX  97
COLUMBIA       SUNNY     84  70  61 SW8       29.91S
SHELBYVILLE    SUNNY     86  73  66 SW7       29.92F HX  93
$$

TNZ017-018-042-046-047-280000-
NORTHEAST TENNESSEE

CITY           SKY/WX    TMP DP  RH WIND       PRES   REMARKS
TRI CITIES     CLOUDY    74  71  91 VRB3      30.00S
ELIZABETHTON   CLOUDY    72  70  94 E5        30.01F
$$

TNZ012-013-036-069-073-074-280000-
CENTRAL EAST TENNESSEE

CITY           SKY/WX    TMP DP  RH WIND       PRES   REMARKS
KNOXVILLE      LGT RAIN  80  69  69 SW7       29.94F
OAK RIDGE      MOSUNNY   81  70  69 SE3       29.96S
DOWNTOWN KNOXV SUNNY     79  72  78 CALM      29.94S
GATLINBURG     SUNNY     82  68  61 SW5       29.95S
MORRISTOWN     SUNNY     82  70  65 W12       29.96R
JACKSBORO      SUNNY     81  72  74 S3        29.98S
$$

TNZ083-085-099-280000-
SOUTHEAST TENNESSEE

CITY           SKY/WX    TMP DP  RH WIND       PRES   REMARKS
CHATTANOOGA    PTSUNNY   85  72  65 S6        29.94F HX  91
DAYTON         PTCLDY    86  77  74 S7        29.92S HX  97
$$

SKY/WX REPORTED AS FAIR MEANS FEW OR NO CLOUDS BELOW
12 THOUSAND FEET.





USA.gov is the U.S. government's official web portal to all federal, state and local government web resources and services.